Location: Ferma
(41.9500°N, 44.5167°E)
Time: 04:59:56
(UTC+00:00)

NOSS 2-3 (D) - Pass Details

Date: 29 May 2022
Orbit: 536 x 1674 km, 63.3° (Epoch: 02 June)

Event Time Altitude Azimuth Distance (km) Brightness Sun altitude
Rises 22:09:12 0° 301° (WNW) 3,858 7.8 -24.3°
Reaches altitude 10° 22:13:40 10° 274° (W) 3,164 7.0 -24.0°
Enters shadow 22:15:28 12° 260° (W) 3,103 6.8 -23.9°
